FW5771 Weather Reports


time (UTC)temp
F
wind
direction
speed
knots
gust
knots
rain 1hr
in
rain 24hr
in
rain mn
in
humidity
%
barometer
mb
20260506233009 59 207 1.7 5.2 0.00 0.00 0.00 76 1017.3
20260506231506 58 219 0.9 7.8 0.00 0.00 0.00 77 1017.3
20260506230005 58 232 0.0 4.3 0.00 0.00 0.00 77 1017.4
20260506224505 58 266 0.9 5.2 0.00 0.00 0.00 78 1017.5
20260506223004 58 219 1.7 7.0 0.00 0.00 0.00 78 1017.5
20260506221505 58 257 1.7 7.0 0.00 0.00 0.00 77 1017.6
20260506220002 57 246 0.9 7.0 0.00 0.00 0.00 79 1017.6
20260506214603 57 244 1.7 7.0 0.00 0.00 0.00 79 1017.5
20260506213101 57 259 0.0 6.1 0.00 0.00 0.00 80 1017.6
20260506211600 57 242 1.7 3.5 0.00 0.00 0.00 79 1017.8
20260506210058 57 302 0.9 5.2 0.00 0.00 0.00 79 1017.7
20260506204558 57 261 0.9 7.0 0.00 0.00 0.00 79 1017.6
20260506203057 57 252 1.7 4.3 0.00 0.00 0.00 79 1017.7
20260506201554 57 170 2.6 7.8 0.00 0.00 0.00 78 1017.6
20260506200053 56 202 0.9 7.0 0.00 0.00 0.00 79 1017.5
20260506194552 56 250 0.9 7.0 0.00 0.00 0.00 79 1017.4
20260506193053 56 266 2.6 7.8 0.00 0.00 0.00 80 1017.5
20260506191548 55 197 0.9 3.5 0.00 0.00 0.00 81 1017.5
20260506190047 55 250 0.9 6.1 0.00 0.00 0.00 81 1017.5
20260506184545 55 215 0.9 8.7 0.00 0.00 0.00 80 1017.4
20260506183044 55 257 1.7 5.2 0.00 0.00 0.00 80 1017.3
20260506181556 55 232 0.9 8.7 0.00 0.00 0.00 80 1017.4
20260506180042 55 289 1.7 9.6 0.00 0.00 0.00 79 1017.4
20260506174539 55 257 0.9 6.1 0.00 0.00 0.00 80 1017.1
20260506173103 55 231 0.0 3.5 0.00 0.00 0.00 83 1017.1
20260506171541 54 235 0.9 2.6 0.00 0.00 0.00 83 1017.0
20260506170048 54 222 0.0 2.6 0.00 0.00 0.00 83 1017.0
20260506164533 54 178 0.0 3.5 0.00 0.00 0.00 84 1017.1
20260506163034 53 245 1.7 7.0 0.00 0.00 0.00 84 1017.0
20260506161530 53 217 0.0 2.6 0.00 0.00 0.00 85 1016.9
20260506160029 53 245 0.0 3.5 0.00 0.00 0.00 86 1016.8
20260506154527 52 257 0.0 4.3 0.00 0.00 0.00 88 1016.7
20260506153027 52 250 0.9 2.6 0.00 0.00 0.00 89 1016.6
20260506151528 52 238 0.0 2.6 0.00 0.00 0.00 90 1016.6
20260506150025 52 223 0.0 2.6 0.00 0.00 0.00 90 1016.7
20260506144523 52 210 0.0 0.9 0.00 0.00 0.00 90 1016.7
20260506143026 52 225 0.0 2.6 0.00 0.00 0.00 90 1016.4
20260506141521 52 228 0.9 6.1 0.00 0.00 0.00 90 1016.3
20260506140021 52 224 0.0 1.7 0.00 0.00 0.00 90 1016.2
20260506134517 52 227 0.0 1.7 0.00 0.00 0.00 90 1016.1
20260506133017 52 227 0.0 2.6 0.00 0.00 0.00 89 1016.1
20260506131516 52 232 0.9 2.6 0.00 0.00 0.00 88 1016.0
20260506130015 52 257 0.0 1.7 0.00 0.00 0.00 88 1016.0
20260506124513 52 240 0.0 3.5 0.00 0.00 0.00 88 1015.7
20260506123012 52 264 0.9 4.3 0.00 0.00 0.00 88 1015.7
20260506121511 52 232 0.9 4.3 0.00 0.00 0.00 88 1015.7
20260506120011 52 222 0.9 5.2 0.00 0.00 0.00 88 1015.6
20260506114509 52 261 1.7 3.5 0.00 0.00 0.00 88 1015.5
20260506113008 52 201 0.0 2.6 0.00 0.00 0.00 88 1015.4
20260506111507 52 267 0.9 2.6 0.00 0.00 0.00 88 1015.3
20260506110005 53 249 0.0 5.2 0.00 0.00 0.00 87 1015.2
20260506104508 53 288 0.0 2.6 0.00 0.00 0.00 87 1015.0
20260506103005 53 269 0.0 1.7 0.00 0.00 0.00 87 1014.9
20260506101506 53 242 0.9 4.3 0.00 0.00 0.00 87 1015.0
20260506100100 53 240 0.9 4.3 0.00 0.00 0.00 87 1014.9
20260506094600 53 232 0.0 1.7 0.00 0.00 0.00 87 1014.7
20260506093057 53 215 0.9 2.6 0.00 0.00 0.00 86 1014.7
20260506091559 53 254 0.0 2.6 0.00 0.00 0.00 86 1014.6
20260506090056 53 279 0.0 0.9 0.00 0.00 0.00 86 1014.6
20260506084555 53 288 0.9 6.1 0.00 0.00 0.00 86 1014.5
20260506083053 53 158 0.0 3.5 0.00 0.00 0.00 86 1014.5
20260506081558 53 200 0.0 2.6 0.00 0.00 0.00 86 1014.2
20260506073049 54 236 0.0 4.3 0.00 0.00 0.00 86 1013.9
20260506071544 54 297 0.0 5.2 0.00 0.00 0.00 85 1013.8
20260506061538 53 260 0.0 1.7 0.00 0.00 0.00 85 1013.4
20260506044535 55 226 0.0 0.0 0.00 0.00 0.00 83 1013.0
20260506043030 56 229 0.0 0.0 0.00 0.00 0.00 82 1013.0
20260506041529 56 215 0.0 0.9 0.00 0.00 0.00 81 1012.8
20260506040041 57 238 0.0 0.0 0.00 0.00 0.00 79 1012.7
20260506034528 58 247 0.9 2.6 0.00 0.00 0.00 78 1012.5
20260506033028 59 178 0.9 2.6 0.00 0.00 0.00 77 1012.2
20260506031527 60 225 1.7 3.5 0.00 0.00 0.00 75 1012.2
20260506030026 61 242 0.9 3.5 0.00 0.00 0.00 74 1011.9
20260506024535 61 246 0.9 6.1 0.00 0.00 0.00 73 1011.9
20260506023025 63 273 1.7 4.3 0.00 0.00 0.00 71 1011.9
20260506021541 64 234 0.9 7.0 0.00 0.00 0.00 70 1011.8
20260506020024 64 261 0.0 7.0 0.00 0.00 0.00 70 1011.7
20260506014526 64 217 0.9 4.3 0.00 0.00 0.00 70 1011.7
20260506013024 64 214 1.7 7.0 0.00 0.00 0.00 70 1011.6
20260506011527 64 231 0.0 6.1 0.00 0.00 0.00 70 1011.6
20260506010022 65 223 0.9 7.0 0.00 0.00 0.00 70 1011.6
20260506004520 66 240 1.7 4.3 0.00 0.00 0.00 68 1011.7
20260506003020 66 235 1.7 9.6 0.00 0.00 0.00 68 1011.8
20260506001519 67 182 2.6 6.1 0.00 0.00 0.00 66 1011.7
20260506000018 67 274 0.0 2.6 0.00 0.00 0.00 66 1011.8
20260505234517 67 255 0.9 5.2 0.00 0.00 0.00 66 1012.0